Tracking 23762 objects as of 22-Oct-2021
HD Live streaming from Space Station
objects crossing your sky now

LEMUR-2-SUSURRUS

Track LEMUR-2-SUSURRUS now!
10-day predictions
LEMUR-2-SUSURRUS is classified as:


NORAD ID: 46502
Int'l Code: 2020-068S
Perigee: 555.5 km
Apogee: 573.4 km
Inclination: 97.7 °
Period: 95.8 minutes
Semi major axis: 6935 km
RCS: Unknown
Launch date: September 28, 2020
Source: United States (US)
Launch site: PLESETSK MISSILE AND SPACE COMPLEX (PKMTR)
aabbcc
Your satellite tracking list
Your tracking list is empty




NASA's NSSDC Master Catalog

Two Line Element Set (TLE):
1 46502U 20068S   21294.57117475  .00001274  00000-0  98826-4 0  9999
2 46502  97.6956 230.8014 0012922  27.6286 332.5612 15.03114904 58201
Source of the keplerian elements: AFSPC